Time,TemperatureF,DewpointF,PressureIn,WindDirection,WindDirectionDegrees,WindSpeedMPH,WindSpeedGustMPH,Humidity,HourlyPrecipIn,Conditions,Clouds,dailyrainin,SolarRadiationWatts/m^2,SoftwareType,DateUTC
2013-01-10 00:02:00,34.0,31.0,-100.00,ENE,58,1.0,2.0,90,0.00,,,0.00,1.000000,,2013-01-10 07:02:00,
2013-01-10 00:11:00,34.0,31.0,-100.00,ENE,58,1.0,2.0,90,0.00,,,0.00,1.000000,,2013-01-10 07:11:00,
2013-01-10 00:42:00,34.0,32.0,-100.00,South,180,1.0,3.0,93,0.00,,,0.00,1.000000,,2013-01-10 07:42:00,
2013-01-10 00:52:00,34.0,32.0,-100.00,South,180,1.0,3.0,93,0.00,,,0.00,1.000000,,2013-01-10 07:52:00,
2013-01-10 01:01:00,34.0,32.0,-100.00,South,180,1.0,3.0,93,0.00,,,0.00,1.000000,,2013-01-10 08:01:00,
2013-01-10 01:11:00,34.0,32.0,-100.00,South,180,1.0,3.0,93,0.00,,,0.00,1.000000,,2013-01-10 08:11:00,
2013-01-10 01:33:00,34.0,32.0,-100.00,South,174,1.0,3.0,91,0.00,,,0.00,1.000000,,2013-01-10 08:33:00,
2013-01-10 01:42:00,34.0,32.0,-100.00,South,174,1.0,3.0,91,0.00,,,0.00,1.000000,,2013-01-10 08:42:00,
2013-01-10 01:52:00,34.0,32.0,-100.00,South,174,1.0,3.0,91,0.00,,,0.00,1.000000,,2013-01-10 08:52:00,
2013-01-10 02:02:00,34.0,32.0,-100.00,South,174,1.0,3.0,91,0.00,,,0.00,1.000000,,2013-01-10 09:02:00,
2013-01-10 02:12:00,34.0,32.0,-100.00,South,174,1.0,3.0,91,0.00,,,0.00,1.000000,,2013-01-10 09:12:00,
2013-01-10 02:43:00,32.0,31.0,-100.00,SSW,202,5.0,9.0,95,0.08,,,0.08,1.000000,,2013-01-10 09:43:00,
2013-01-10 02:52:00,32.0,31.0,-100.00,SSW,202,5.0,9.0,95,0.08,,,0.08,1.000000,,2013-01-10 09:52:00,
2013-01-10 03:02:00,32.0,31.0,-100.00,SSW,202,5.0,9.0,95,0.08,,,0.08,1.000000,,2013-01-10 10:02:00,
2013-01-10 03:11:00,32.0,31.0,-100.00,SSW,202,5.0,9.0,95,0.08,,,0.08,1.000000,,2013-01-10 10:11:00,
2013-01-10 03:33:00,30.0,29.0,-100.00,WSW,243,5.0,11.0,95,0.10,,,0.18,1.000000,,2013-01-10 10:33:00,
2013-01-10 03:42:00,30.0,29.0,-100.00,WSW,243,5.0,11.0,95,0.10,,,0.18,1.000000,,2013-01-10 10:42:00,
2013-01-10 03:52:00,30.0,29.0,-100.00,WSW,243,5.0,11.0,95,0.10,,,0.18,1.000000,,2013-01-10 10:52:00,
2013-01-10 04:02:00,30.0,29.0,-100.00,WSW,243,5.0,11.0,95,0.10,,,0.18,1.000000,,2013-01-10 11:02:00,
2013-01-10 04:12:00,30.0,29.0,-100.00,WSW,243,5.0,11.0,95,0.10,,,0.18,1.000000,,2013-01-10 11:12:00,
2013-01-10 04:43:00,29.0,28.0,-100.00,West,271,4.0,11.0,95,0.05,,,0.23,1.000000,,2013-01-10 11:43:00,
2013-01-10 04:53:00,29.0,28.0,-100.00,West,271,4.0,11.0,95,0.05,,,0.23,1.000000,,2013-01-10 11:53:00,
2013-01-10 05:02:00,29.0,28.0,-100.00,West,271,4.0,11.0,95,0.05,,,0.23,1.000000,,2013-01-10 12:02:00,
2013-01-10 05:12:00,29.0,28.0,-100.00,West,271,4.0,11.0,95,0.05,,,0.23,1.000000,,2013-01-10 12:12:00,
2013-01-10 07:33:00,29.0,28.0,-100.00,South,189,1.0,5.0,95,-99.99,,,0.32,1.000000,,2013-01-10 14:33:00,
2013-01-10 07:43:00,29.0,28.0,-100.00,South,189,1.0,5.0,95,-99.99,,,0.32,1.000000,,2013-01-10 14:43:00,
2013-01-10 07:53:00,29.0,28.0,-100.00,South,189,1.0,5.0,95,-99.99,,,0.32,1.000000,,2013-01-10 14:53:00,
2013-01-10 08:03:00,29.0,28.0,-100.00,South,189,1.0,5.0,95,-99.99,,,0.32,1.000000,,2013-01-10 15:03:00,
2013-01-10 08:12:00,29.0,28.0,-100.00,South,189,1.0,5.0,95,-99.99,,,0.32,1.000000,,2013-01-10 15:12:00,
2013-01-10 08:33:00,28.0,27.0,-100.00,SSW,210,2.0,4.0,95,0.01,,,0.33,1.000000,,2013-01-10 15:33:00,
2013-01-10 08:43:00,28.0,27.0,-100.00,SSW,210,2.0,4.0,95,0.01,,,0.33,1.000000,,2013-01-10 15:43:00,
2013-01-10 08:53:00,28.0,27.0,-100.00,SSW,210,2.0,4.0,95,0.01,,,0.33,1.000000,,2013-01-10 15:53:00,
2013-01-10 09:02:00,28.0,27.0,-100.00,SSW,210,2.0,4.0,95,0.01,,,0.33,1.000000,,2013-01-10 16:02:00,
2013-01-10 09:12:00,28.0,27.0,-100.00,SSW,210,2.0,4.0,95,0.01,,,0.33,1.000000,,2013-01-10 16:12:00,
2013-01-10 09:43:00,28.0,27.0,-100.00,SSW,204,2.0,7.0,94,0.01,,,0.34,1.000000,,2013-01-10 16:43:00,
2013-01-10 09:53:00,28.0,27.0,-100.00,SSW,204,2.0,7.0,94,0.01,,,0.34,1.000000,,2013-01-10 16:53:00,
2013-01-10 10:02:00,28.0,27.0,-100.00,SSW,204,2.0,7.0,94,0.01,,,0.34,1.000000,,2013-01-10 17:02:00,
2013-01-10 10:12:00,28.0,27.0,-100.00,SSW,204,2.0,7.0,94,0.01,,,0.34,1.000000,,2013-01-10 17:12:00,
2013-01-10 10:43:00,28.0,27.0,-100.00,WSW,244,2.0,4.0,95,0.03,,,-99.99,2.000000,,2013-01-10 17:43:00,
2013-01-10 10:53:00,28.0,27.0,-100.00,WSW,244,2.0,4.0,95,0.03,,,-99.99,2.000000,,2013-01-10 17:53:00,
2013-01-10 11:03:00,28.0,27.0,-100.00,WSW,244,2.0,4.0,95,0.03,,,-99.99,2.000000,,2013-01-10 18:03:00,
2013-01-10 11:12:00,28.0,27.0,-100.00,WSW,244,2.0,4.0,95,0.03,,,-99.99,2.000000,,2013-01-10 18:12:00,
2013-01-10 11:43:00,29.0,27.0,-100.00,SW,224,3.0,7.0,93,0.04,,,0.41,4.000000,,2013-01-10 18:43:00,
2013-01-10 11:53:00,29.0,27.0,-100.00,SW,224,3.0,7.0,93,0.04,,,0.41,4.000000,,2013-01-10 18:53:00,
2013-01-10 12:02:00,29.0,27.0,-100.00,SW,224,3.0,7.0,93,0.04,,,0.41,4.000000,,2013-01-10 19:02:00,
2013-01-10 12:12:00,29.0,27.0,-100.00,SW,224,3.0,7.0,93,0.04,,,0.41,4.000000,,2013-01-10 19:12:00,
2013-01-10 12:43:00,28.0,26.0,-100.00,NNE,12,2.0,6.0,93,0.02,,,-99.99,5.000000,,2013-01-10 19:43:00,
2013-01-10 12:53:00,28.0,26.0,-100.00,NNE,12,2.0,6.0,93,0.02,,,-99.99,5.000000,,2013-01-10 19:53:00,
2013-01-10 13:02:00,28.0,26.0,-100.00,NNE,12,2.0,6.0,93,0.02,,,-99.99,5.000000,,2013-01-10 20:02:00,
2013-01-10 13:12:00,28.0,26.0,-100.00,NNE,12,2.0,6.0,93,0.02,,,-99.99,5.000000,,2013-01-10 20:12:00,
2013-01-10 13:33:00,28.0,26.0,-100.00,North,350,1.0,5.0,92,0.07,,,0.50,6.000000,,2013-01-10 20:33:00,
2013-01-10 13:43:00,28.0,26.0,-100.00,North,350,1.0,5.0,92,0.07,,,0.50,6.000000,,2013-01-10 20:43:00,
2013-01-10 13:53:00,28.0,26.0,-100.00,North,350,1.0,5.0,92,0.07,,,0.50,6.000000,,2013-01-10 20:53:00,
2013-01-10 14:03:00,28.0,26.0,-100.00,North,350,1.0,5.0,92,0.07,,,0.50,6.000000,,2013-01-10 21:03:00,
2013-01-10 14:12:00,28.0,26.0,-100.00,North,350,1.0,5.0,92,0.07,,,0.50,6.000000,,2013-01-10 21:12:00,
2013-01-10 14:33:00,28.0,26.0,-100.00,North,350,1.0,1.0,92,0.06,,,0.56,7.000000,,2013-01-10 21:33:00,
2013-01-10 14:43:00,28.0,26.0,-100.00,North,350,1.0,1.0,92,0.06,,,0.56,7.000000,,2013-01-10 21:43:00,
2013-01-10 14:53:00,28.0,26.0,-100.00,North,350,1.0,1.0,92,0.06,,,0.56,7.000000,,2013-01-10 21:53:00,
2013-01-10 15:03:00,28.0,26.0,-100.00,North,350,1.0,1.0,92,0.06,,,0.56,7.000000,,2013-01-10 22:03:00,
2013-01-10 15:12:00,28.0,26.0,-100.00,North,350,1.0,1.0,92,0.06,,,0.56,7.000000,,2013-01-10 22:12:00,
2013-01-10 15:44:00,28.0,25.0,-100.00,WNW,303,2.0,4.0,90,0.01,,,0.57,8.000000,,2013-01-10 22:44:00,
2013-01-10 16:02:00,28.0,25.0,-100.00,WNW,303,2.0,4.0,90,0.01,,,0.57,8.000000,,2013-01-10 23:02:00,
2013-01-10 16:12:00,28.0,25.0,-100.00,WNW,303,2.0,4.0,90,0.01,,,0.57,8.000000,,2013-01-10 23:12:00,
2013-01-10 16:43:00,26.0,23.0,-100.00,North,352,2.0,6.0,89,0.02,,,0.59,6.000000,,2013-01-10 23:43:00,
2013-01-10 16:53:00,26.0,23.0,-100.00,North,352,2.0,6.0,89,0.02,,,0.59,6.000000,,2013-01-10 23:53:00,
2013-01-10 17:02:00,26.0,23.0,-100.00,North,352,2.0,6.0,89,0.02,,,0.59,6.000000,,2013-01-11 00:02:00,
2013-01-10 17:12:00,26.0,23.0,-100.00,North,352,2.0,6.0,89,0.02,,,0.59,6.000000,,2013-01-11 00:12:00,
2013-01-10 17:43:00,25.0,22.0,-100.00,NE,35,1.0,4.0,88,0.00,,,0.59,4.000000,,2013-01-11 00:43:00,
2013-01-10 17:53:00,25.0,22.0,-100.00,NE,35,1.0,4.0,88,0.00,,,0.59,4.000000,,2013-01-11 00:53:00,
2013-01-10 18:12:00,25.0,22.0,-100.00,NE,35,1.0,4.0,88,0.00,,,0.59,4.000000,,2013-01-11 01:12:00,
2013-01-10 18:34:00,24.0,22.0,-100.00,South,184,1.0,5.0,91,0.00,,,0.59,2.000000,,2013-01-11 01:34:00,
2013-01-10 18:43:00,24.0,22.0,-100.00,South,184,1.0,5.0,91,0.00,,,0.59,2.000000,,2013-01-11 01:43:00,
2013-01-10 18:53:00,24.0,22.0,-100.00,South,184,1.0,5.0,91,0.00,,,0.59,2.000000,,2013-01-11 01:53:00,
2013-01-10 19:02:00,24.0,22.0,-100.00,South,184,1.0,5.0,91,0.00,,,0.59,2.000000,,2013-01-11 02:02:00,
2013-01-10 19:12:00,24.0,22.0,-100.00,South,184,1.0,5.0,91,0.00,,,0.59,2.000000,,2013-01-11 02:12:00,
2013-01-10 19:43:00,23.0,21.0,-100.00,SSE,153,0.0,2.0,91,0.00,,,0.59,1.000000,,2013-01-11 02:43:00,
2013-01-10 19:54:00,23.0,21.0,-100.00,SSE,153,0.0,2.0,91,0.00,,,0.59,1.000000,,2013-01-11 02:54:00,
2013-01-10 20:02:00,23.0,21.0,-100.00,SSE,153,0.0,2.0,91,0.00,,,0.59,1.000000,,2013-01-11 03:02:00,
2013-01-10 20:12:00,23.0,21.0,-100.00,SSE,153,0.0,2.0,91,0.00,,,0.59,1.000000,,2013-01-11 03:12:00,
2013-01-10 20:33:00,23.0,21.0,-100.00,SE,144,1.0,1.0,92,0.00,,,0.59,1.000000,,2013-01-11 03:33:00,
2013-01-10 20:43:00,23.0,21.0,-100.00,SE,144,1.0,1.0,92,0.00,,,0.59,1.000000,,2013-01-11 03:43:00,
2013-01-10 20:53:00,23.0,21.0,-100.00,SE,144,1.0,1.0,92,0.00,,,0.59,1.000000,,2013-01-11 03:53:00,
2013-01-10 21:02:00,23.0,21.0,-100.00,SE,144,1.0,1.0,92,0.00,,,0.59,1.000000,,2013-01-11 04:02:00,
2013-01-10 21:11:00,23.0,21.0,-100.00,SE,144,1.0,1.0,92,0.00,,,0.59,1.000000,,2013-01-11 04:11:00,
2013-01-10 21:33:00,22.0,20.0,-100.00,SE,142,1.0,1.0,91,0.00,,,0.59,1.000000,,2013-01-11 04:33:00,
2013-01-10 21:43:00,22.0,20.0,-100.00,SE,142,1.0,1.0,91,0.00,,,0.59,1.000000,,2013-01-11 04:43:00,
2013-01-10 22:03:00,22.0,20.0,-100.00,SE,142,1.0,1.0,91,0.00,,,0.59,1.000000,,2013-01-11 05:03:00,
2013-01-10 22:12:00,22.0,20.0,-100.00,SE,142,1.0,1.0,91,0.00,,,0.59,1.000000,,2013-01-11 05:12:00,
2013-01-10 22:33:00,22.0,20.0,-100.00,SSE,164,0.0,1.0,92,0.00,,,0.59,1.000000,,2013-01-11 05:33:00,
2013-01-10 22:43:00,22.0,20.0,-100.00,SSE,164,0.0,1.0,92,0.00,,,0.59,1.000000,,2013-01-11 05:43:00,
2013-01-10 22:53:00,22.0,20.0,-100.00,SSE,164,0.0,1.0,92,0.00,,,0.59,1.000000,,2013-01-11 05:53:00,
2013-01-10 23:02:00,22.0,20.0,-100.00,SSE,164,0.0,1.0,92,0.00,,,0.59,1.000000,,2013-01-11 06:02:00,
2013-01-10 23:12:00,22.0,20.0,-100.00,SSE,164,0.0,1.0,92,0.00,,,0.59,1.000000,,2013-01-11 06:12:00,
2013-01-10 23:33:00,22.0,20.0,-100.00,SW,232,1.0,4.0,92,0.00,,,0.59,1.000000,,2013-01-11 06:33:00,
2013-01-10 23:42:00,22.0,20.0,-100.00,SW,232,1.0,4.0,92,0.00,,,0.59,1.000000,,2013-01-11 06:42:00,
2013-01-10 23:52:00,22.0,20.0,-100.00,SW,232,1.0,4.0,92,0.00,,,0.59,1.000000,,2013-01-11 06:52:00,